Location: B�rgermoos
(47.6500°N, 9.0667°E)
Time: 05:18:51
(UTC+00:00)

Explorer 7 - All Passes

Search period start: 31 July 2021 00:00
Search period end: 10 August 2021 00:00
Orbit: 484 x 676 km, 50.3° (Epoch: 30 July)

Date Brightness Start Highest point End Pass type
(mag) Time Alt. Az. Time Alt. Az. Time Alt. Az.
31 Jul - 03:35:17 10° SSE 03:36:48 12° SE 03:38:22 10° ESE daylight
31 Jul - 05:12:46 10° SW 05:16:31 55° SSE 05:20:29 10° ENE daylight
31 Jul - 06:53:06 10° W 06:57:01 63° N 07:01:11 10° ENE daylight
31 Jul - 08:33:42 10° WNW 08:37:47 69° NNE 08:42:08 10° E daylight
31 Jul - 10:14:10 10° WNW 10:18:15 47° SSW 10:22:34 10° SE daylight
31 Jul - 11:56:27 10° WSW 11:58:04 12° SW 11:59:42 10° SSW daylight
01 Aug - 03:38:09 10° S 03:40:51 19° SE 03:43:38 10° E daylight
01 Aug - 05:16:59 10° WSW 05:20:48 76° SSE 05:24:50 10° ENE daylight
01 Aug - 06:57:30 10° W 07:01:25 58° N 07:05:34 10° ENE daylight
01 Aug - 08:38:02 10° WNW 08:42:09 82° NNE 08:46:31 10° ESE daylight
01 Aug - 10:18:37 10° W 10:22:27 33° SW 10:26:30 10° SSE daylight
02 Aug - 03:41:43 10° SSW 03:44:58 28° SE 03:48:20 10° E daylight
02 Aug - 05:21:16 10° WSW 05:25:07 83° NNW 05:29:11 10° ENE daylight
02 Aug - 07:01:54 10° WNW 07:05:49 58° N 07:09:58 10° E daylight
02 Aug - 08:42:22 10° WNW 08:46:28 80° SSW 08:50:50 10° ESE daylight
02 Aug - 10:23:12 10° W 10:26:36 23° SW 10:30:09 10° SSE daylight
03 Aug - 03:45:34 10° SW 03:49:08 41° SSE 03:52:49 10° ENE daylight
03 Aug - 05:25:38 10° W 05:29:28 69° NNW 05:33:31 10° ENE daylight
03 Aug - 07:06:16 10° WNW 07:10:13 62° N 07:14:24 10° E daylight
03 Aug - 08:46:43 10° WNW 08:50:46 60° SSW 08:55:03 10° SE daylight
03 Aug - 10:28:07 10° W 10:30:42 16° SW 10:33:22 10° S daylight
04 Aug - 02:11:46 10° SSE 02:13:35 13° SE 02:15:25 10° ESE visible
04 Aug - 03:49:38 10° SW 03:53:21 59° SSE 03:57:13 10° ENE daylight
04 Aug - 05:30:02 10° W 05:33:51 60° N 05:37:52 10° ENE daylight
04 Aug - 07:10:38 10° WNW 07:14:35 71° NNE 07:18:48 10° E daylight
04 Aug - 08:51:06 10° WNW 08:54:59 43° SSW 08:59:07 10° SE daylight
05 Aug - 02:14:50 10° S 02:17:38 20° SE 02:20:30 10° E visible
05 Aug - 03:53:52 10° WSW 03:57:38 81° SSE 04:01:34 10° ENE daylight
05 Aug - 05:34:27 10° W 05:38:15 57° N 05:42:16 10° ENE daylight
05 Aug - 07:14:58 10° WNW 07:18:56 85° NNE 07:23:10 10° ESE daylight
05 Aug - 08:55:35 10° W 08:59:11 30° SW 09:02:58 10° SSE daylight
06 Aug - 02:18:27 10° SSW 02:21:46 30° SE 02:25:08 10° E visible
06 Aug - 03:58:10 10° WSW 04:01:58 79° NNW 04:05:54 10° ENE daylight
06 Aug - 05:38:50 10° WNW 05:42:39 58° N 05:46:40 10° E daylight
06 Aug - 07:19:17 10° WNW 07:23:15 75° SSW 07:27:28 10° ESE daylight
06 Aug - 09:00:14 10° W 09:03:19 20° SW 09:06:32 10° S daylight
07 Aug - 02:22:22 10° SW 02:25:57 44° SSE 02:29:36 10° ENE visible
07 Aug - 04:02:32 10° W 04:06:19 66° NNW 04:10:14 10° ENE daylight
07 Aug - 05:43:11 10° WNW 05:47:02 63° N 05:51:05 10° E daylight
07 Aug - 07:23:37 10° WNW 07:27:31 54° SSW 07:31:38 10° SE daylight
07 Aug - 09:05:21 10° WSW 09:07:24 13° SW 09:09:31 10° SSW daylight
08 Aug - 00:48:14 10° S 00:50:20 15° SE 00:52:28 10° ESE visible
08 Aug - 02:26:29 10° SW 02:30:11 64° SSE 02:33:59 10° ENE visible
08 Aug - 04:06:57 10° W 04:10:42 59° N 04:14:35 10° ENE daylight
08 Aug - 05:47:31 10° WNW 05:51:24 73° NNE 05:55:29 10° E daylight
08 Aug - 07:28:02 10° WNW 07:31:45 38° SSW 07:35:39 10° SE daylight
09 Aug - 00:51:29 10° SSW 00:54:25 22° SE 00:57:23 10° E visible
09 Aug - 02:30:43 10° WSW 02:34:28 86° SSE 02:38:19 10° ENE visible
09 Aug - 04:11:21 10° W 04:15:05 56° N 04:18:59 10° E daylight
09 Aug - 05:51:52 10° WNW 05:55:44 90° NNE 05:59:50 10° ESE daylight
09 Aug - 07:32:33 10° W 07:35:55 26° SW 07:39:26 10° SSE daylight
